Regional Weather Roundup
Issued by NWS

Home | Current Version | Previous Version | Text Only | Print | Product List | Glossary Off
Versions: 1 2 3 4 5 6 7 8 9 10 11 12 13 14 15 16 17 18 19 20 21 22 23 24 25 26 27 28 29 30 31 32 33 34 35 36 37 38 39 40 41 42 43 44 45 46 47 48 49 50

000
ASUS43 KLOT 300413
RWRIL

ILLINOIS REGIONAL WEATHER ROUNDUP
NATIONAL WEATHER SERVICE CHICAGO/ROMEOVILLE IL
1100 PM CDT THU SEP 29 2016

NOTE: "FAIR" INDICATES FEW OR NO CLOUDS BELOW 12,000 FEET WITH NO
SIGNIFICANT WEATHER AND/OR OBSTRUCTIONS TO VISIBILITY.

* THESE STATIONS ARE NOT UNDER NWS QUALITY CONTROL. THEY ALSO MAY NOT
  REPORT WEATHER SUCH AS PRECIPITATION OR FOG.

ILZ001-002-007-009-015-016-024-300500-
NORTHWEST ILLINOIS

CITY           SKY/WX    TMP DP  RH WIND       PRES   REMARKS
MOLINE         CLOUDY    64  53  67 N6        30.25S
STERLING*      CLOUDY    62  56  80 N5        30.25S
SAVANNA*       CLEAR     58  50  74 N7        30.26S
$$

ILZ003-004-008-010-011-017-018-300500-
NORTH CENTRAL ILLINOIS

CITY           SKY/WX    TMP DP  RH WIND       PRES   REMARKS
ROCKFORD       MOCLDY    61  55  81 NE8       30.27S
FREEPORT*      CLEAR     56  50  79 N6        30.28S
ROCHELLE*      CLOUDY    61  56  84 NE9       30.24F
DE KALB*       CLOUDY    59  58  96 N8        30.24S
$$

ILZ005-006-012>014-019>023-300500-
NORTHEAST ILLINOIS

CITY           SKY/WX    TMP DP  RH WIND       PRES   REMARKS
CHICAGO-OHARE  LGT RAIN  61  58  90 NE13      30.21F
CHICAGO-MIDWAY LGT RAIN  62  58  86 N12       30.20F FOG
AURORA         MOCLDY    61  58  90 N7        30.22S
LANSING*       RAIN      60  60 100 NE8       30.19F
JOLIET*        LGT RAIN  62  61  96 NE8       30.20F
WAUKEGAN       LGT RAIN  61  57  87 NE8       30.23F
DUPAGE AIRPORT LGT RAIN  61  57  87 NE10      30.21F
KANKAKEE*      LGT RAIN  60  58  92 N7        30.18F
WHEELING       LGT RAIN  61  58  90 NE7       30.23F
MORRIS*        CLOUDY    60  59  94 CALM      30.19F
ROMEOVILLE*    LGT RAIN  60  60 100 NE8       30.21F
NORTHERLY ISL    N/A     61  57  87 NE12        N/A
$$

LMZ740>746-300500-
SOUTHERN LAKE MICHIGAN

STATION/POSITION SKY/WX   TEMP    WIND        PRES    VSBY  WAVE
                          AIR SEA DIR/SP/G                  HT/PER
                          (F)     (DEG/KT/KT) (MB)    (MI)  (FT/S)
SOUTHERN BUOY              63 68   50/ 21/ 25 1022.7F         6/ 5
WILMETTE HARBOR            61 56   70/ 16/ 21   N/A           6/ 6
HARRISON CRIB              63      30/ 20/ 22   N/A
BURNHAM HARBOR             61      30/ 12/ 16   N/A
CALUMET HARBOR             61      20/ 13/ 16 1021.9F
BURNS HARBOR               62      50/ 19/ 23 1022.4F
MICHIGAN CITY              61      10/ 23/ 25   N/A
MICHIGAN CITY 6N           62 65   40/ 17/ 23   N/A           6/ 6
ST. JOSEPH                 58 58   30/ 12/ 16 1022.4          4/ 6
$$

ILZ025>027-034>036-040-047-049-050-058-095>099-300500-
WEST-CENTRAL ILLINOIS

CITY           SKY/WX    TMP DP  RH WIND       PRES   REMARKS
QUINCY         CLEAR     61  54  77 NE9       30.22S
GALESBURG*     CLEAR     59  53  80 N8        30.23F
MACOMB*        PTCLDY    59  54  84 N7        30.25S
JACKSONVILLE*  PTCLDY    58  55  90 N6        30.19F
PITTSFIELD*    CLEAR     62  56  82 N6        30.21F
$$

ILZ028>032-037-038-041>044-048-051>054-059>061-300500-
CENTRAL ILLINOIS

CITY           SKY/WX    TMP DP  RH WIND       PRES   REMARKS
PONTIAC        CLOUDY    60  60 100 N6        30.19F
BLOOMINGTON    PTCLDY    58  57  97 N12       30.19R
DECATUR        PTCLDY    60  57  89 N12       30.16F
PEORIA         CLEAR     61  57  87 NE10      30.20F
LACON*         CLOUDY    60  56  84 N5        30.21S
LINCOLN*       CLEAR     59  58  97 N7        30.18S
SPRINGFIELD    CLEAR     60  57  89 N9        30.19S
TAYLORVILLE    CLOUDY    60  59  96 N9        30.16F
$$

ILZ033-039-045-046-055>057-062-063-300500-
EAST-CENTRAL ILLINOIS

CITY           SKY/WX    TMP DP  RH WIND       PRES   REMARKS
CHAMPAIGN      PTCLDY    60  57  89 N13       30.15S
RANTOUL*       PTCLDY    61  59  93 N12       30.15F
MATTOON        MOCLDY    58  56  93 NW5       30.13S
PARIS*         CLOUDY    59  58  97 CALM      30.13F
$$

ILZ079-100>102-300500-
SOUTHWEST ILLINOIS

CITY           SKY/WX    TMP DP  RH WIND       PRES   REMARKS
ALTON          CLOUDY    59  57  94 N5        30.18S
BELLEVILLE     CLEAR     59  59 100 VRB5      30.14F
CAHOKIA*       CLOUDY    63  58  83 N8        30.17S
SPARTA*        MOCLDY    57  57  98 NW6       30.16S
$$

ILZ064>066-069>071-074>076-080>082-084>086-088>090-092>094-300500-
SOUTH-CENTRAL ILLINOIS

CITY           SKY/WX    TMP DP  RH WIND       PRES   REMARKS
CARBONDALE     PTCLDY    56  56 100 NW3       30.14S FOG
CAIRO*         CLEAR     55  55 100 CALM      30.14S
EFFINGHAM*     CLEAR     60  60 100 N5        30.15S
MARION         MOCLDY    57  57 100 CALM      30.14F FOG
MT. VERNON     MOCLDY    55  52  88 CALM      30.13F
CENTRALIA*     CLOUDY    60  60  97 NW5       30.12F
SALEM*         CLOUDY    61  58  91 CALM      30.13S
METROPOLIS*    CLEAR     56  55  97 CALM      30.13F
$$

ILZ067-068-072-073-078-083-087-091-300500-
SOUTHEAST ILLINOIS

CITY           SKY/WX    TMP DP  RH WIND       PRES   REMARKS
LAWRENCEVILLE  CLOUDY    57  54  89 NW6       30.10F
FLORA*         CLOUDY    59  57  95 NW5       30.12S
FAIRFIELD*       N/A     58  57  96 NW3       30.11F
HARRISBURG*    CLEAR     56  56  99 W3        30.12F
ROBINSON*      CLOUDY    54  53  99 CALM      30.12S
CARMI*         CLEAR     54  54 100 W7        30.10F
$$

ABBREVIATIONS USED IN REMARKS
   TC - TEMPERATURE IN CELSIUS
  WCI - WIND CHILL INDEX
   HX - HEAT INDEX
  VSB - VISIBILITY
$$





USA.gov is the U.S. government's official web portal to all federal, state and local government web resources and services.